TimeEDT,TemperatureF,Dew PointF,Humidity,Sea Level PressureIn,VisibilityMPH,Wind Direction,Wind SpeedMPH,Gust SpeedMPH,PrecipitationIn,Events,Conditions,WindDirDegrees,DateUTC
12:54 AM,60.1,57.0,90,29.91,10.0,WSW,8.1,-,N/A,,Clear,250,2013-06-18 04:54:00
1:54 AM,59.0,57.0,93,29.92,10.0,WSW,10.4,-,N/A,,Scattered Clouds,250,2013-06-18 05:54:00
2:54 AM,59.0,57.9,96,29.91,10.0,West,10.4,-,0.00,Rain,Light Rain,260,2013-06-18 06:54:00
3:54 AM,61.0,57.0,87,29.89,10.0,West,8.1,-,0.00,,Overcast,280,2013-06-18 07:54:00
4:54 AM,59.0,57.0,93,29.90,10.0,West,5.8,-,N/A,,Clear,270,2013-06-18 08:54:00
5:54 AM,60.1,57.0,90,29.92,10.0,NW,9.2,-,N/A,,Clear,310,2013-06-18 09:54:00
6:54 AM,62.1,57.9,86,29.93,10.0,SE,3.5,-,N/A,,Clear,130,2013-06-18 10:54:00
7:54 AM,63.0,59.0,87,29.95,10.0,ESE,5.8,-,N/A,,Clear,110,2013-06-18 11:54:00
8:28 AM,64.0,60.1,87,29.95,10.0,East,3.5,-,N/A,,Partly Cloudy,90,2013-06-18 12:28:00
8:54 AM,64.0,60.1,87,29.96,10.0,SE,9.2,-,N/A,,Mostly Cloudy,140,2013-06-18 12:54:00
9:54 AM,-9999,-9999,N/A,29.96,10.0,SE,6.9,-,N/A,,Mostly Cloudy,140,2013-06-18 13:54:00
10:54 AM,66.9,60.1,79,29.95,10.0,SE,3.5,-,N/A,,Mostly Cloudy,140,2013-06-18 14:54:00
11:54 AM,71.1,60.1,68,29.94,10.0,East,5.8,-,N/A,,Scattered Clouds,90,2013-06-18 15:54:00
12:54 PM,72.0,60.1,66,29.92,10.0,ESE,6.9,-,N/A,,Scattered Clouds,110,2013-06-18 16:54:00
1:14 PM,72.0,59.0,64,29.92,10.0,Variable,4.6,-,N/A,,Overcast,0,2013-06-18 17:14:00
1:24 PM,72.0,60.1,66,29.91,10.0,ENE,6.9,-,N/A,,Overcast,60,2013-06-18 17:24:00
1:54 PM,68.0,62.1,81,29.91,9.0,NNW,9.2,-,0.00,Rain,Light Rain,340,2013-06-18 17:54:00
2:05 PM,64.9,63.0,93,29.91,2.0,NNE,12.7,19.6,0.06,Rain,Rain,20,2013-06-18 18:05:00
2:11 PM,64.0,62.1,93,29.91,2.5,North,15.0,21.9,0.06,Rain,Rain,10,2013-06-18 18:11:00
2:18 PM,62.1,61.0,96,29.93,1.0,North,10.4,21.9,0.20,Rain,Heavy Rain,10,2013-06-18 18:18:00
2:40 PM,62.1,61.0,96,29.92,2.0,North,11.5,-,0.55,Rain,Heavy Rain,10,2013-06-18 18:40:00
2:49 PM,62.6,60.8,94,29.93,7.0,NNE,9.2,-,0.57,Rain,Light Rain,20,2013-06-18 18:49:00
2:54 PM,62.1,61.0,96,29.92,10.0,NNE,10.4,20.7,0.57,Rain,Light Rain,30,2013-06-18 18:54:00
3:11 PM,60.1,60.1,100,29.92,0.5,NNE,8.1,16.1,0.00,Rain,Light Rain,30,2013-06-18 19:11:00
3:29 PM,59.0,57.9,96,29.93,2.0,NE,8.1,19.6,0.00,Rain,Light Rain,40,2013-06-18 19:29:00
3:54 PM,59.0,57.9,96,29.94,2.0,NE,8.1,-,0.00,Rain,Light Rain,40,2013-06-18 19:54:00
4:26 PM,59.0,57.9,96,29.95,10.0,ENE,8.1,-,0.00,Rain,Light Rain,70,2013-06-18 20:26:00
4:37 PM,57.9,57.9,100,29.95,2.0,NE,11.5,-,0.02,Rain,Heavy Rain,50,2013-06-18 20:37:00
4:54 PM,59.0,57.9,96,29.94,1.0,ENE,11.5,-,0.08,Rain,Light Rain,70,2013-06-18 20:54:00
5:03 PM,57.9,57.9,100,29.94,2.5,ENE,12.7,-,0.00,Rain,Light Rain,60,2013-06-18 21:03:00
5:10 PM,57.9,57.9,100,29.94,4.0,ENE,10.4,-,0.00,Rain,Light Rain,70,2013-06-18 21:10:00
5:39 PM,57.9,57.0,97,29.95,10.0,ENE,8.1,-,0.00,,Overcast,70,2013-06-18 21:39:00
5:49 PM,57.2,57.2,100,29.94,9.0,East,8.1,-,0.00,,Overcast,80,2013-06-18 21:49:00
5:54 PM,57.9,57.0,97,29.94,10.0,East,5.8,-,0.00,,Overcast,80,2013-06-18 21:54:00
6:26 PM,57.9,57.0,97,29.94,10.0,ENE,8.1,-,N/A,,Overcast,60,2013-06-18 22:26:00
6:42 PM,57.9,57.0,97,29.93,10.0,ENE,8.1,-,N/A,,Overcast,60,2013-06-18 22:42:00
6:54 PM,57.9,57.0,97,29.93,10.0,ENE,8.1,-,N/A,,Overcast,60,2013-06-18 22:54:00
7:18 PM,57.0,57.0,100,29.93,10.0,NNE,6.9,-,N/A,,Overcast,30,2013-06-18 23:18:00
7:54 PM,57.9,57.0,97,29.92,10.0,NE,8.1,-,N/A,,Overcast,40,2013-06-18 23:54:00
8:21 PM,57.9,57.0,97,29.92,10.0,NE,4.6,-,N/A,,Mostly Cloudy,50,2013-06-19 00:21:00
8:36 PM,57.0,57.0,100,29.93,10.0,NE,3.5,-,N/A,,Overcast,50,2013-06-19 00:36:00
8:51 PM,57.2,55.4,94,29.93,10.0,North,6.9,-,N/A,,Overcast,10,2013-06-19 00:51:00
8:54 PM,57.0,55.0,93,29.94,10.0,NNE,8.1,-,N/A,,Overcast,20,2013-06-19 00:54:00
9:04 PM,57.0,54.0,89,29.93,10.0,NE,8.1,-,N/A,,Overcast,40,2013-06-19 01:04:00
9:54 PM,55.9,54.0,93,29.95,10.0,NE,4.6,-,N/A,,Overcast,40,2013-06-19 01:54:00
10:49 PM,55.4,53.6,94,29.94,6.0,NNE,5.8,-,0.07,Rain,Rain,20,2013-06-19 02:49:00
10:54 PM,55.0,54.0,96,29.94,6.0,NNE,5.8,-,0.07,Rain,Rain,20,2013-06-19 02:54:00
11:33 PM,55.0,54.0,96,29.94,5.0,NNE,8.1,-,0.10,Rain,Light Rain,30,2013-06-19 03:33:00
11:54 PM,55.0,55.0,100,29.95,3.0,North,5.8,-,0.16,Rain,Heavy Rain,360,2013-06-19 03:54:00